| time (UTC) | temp F | wind direction | speed MPH | gust MPH | rain 1hr in | rain 24hr in | rain mn in | humidity % | barometer mb |
| 20260504050439 | 74 | 44 | 1.0 | 4.0 | 0.00 | 0.22 | 0.00 | 72 | 1015.4 |
| 20260504045936 | 73 | 31 | 2.0 | 4.0 | 0.00 | 0.22 | 0.00 | 71 | 1015.4 |
| 20260504045432 | 73 | 32 | 2.0 | 4.0 | 0.00 | 0.22 | 0.00 | 72 | 1015.4 |
| 20260504044943 | 73 | 33 | 1.0 | 4.0 | 0.00 | 0.22 | 0.00 | 72 | 1015.4 |
| 20260504044436 | 73 | 37 | 2.0 | 4.0 | 0.00 | 0.22 | 0.00 | 72 | 1015.4 |
| 20260504043931 | 73 | 47 | 2.0 | 3.0 | 0.00 | 0.22 | 0.00 | 72 | 1015.4 |
| 20260504043441 | 73 | 38 | 2.0 | 5.0 | 0.00 | 0.22 | 0.00 | 72 | 1015.4 |
| 20260504042939 | 73 | 72 | 2.0 | 5.0 | 0.00 | 0.22 | 0.00 | 72 | 1015.8 |
| 20260504042433 | 73 | 28 | 1.0 | 6.0 | 0.00 | 0.22 | 0.00 | 72 | 1015.8 |
| 20260504041939 | 73 | 57 | 1.0 | 6.0 | 0.00 | 0.22 | 0.00 | 73 | 1015.8 |
| 20260504041435 | 73 | 71 | 1.0 | 4.0 | 0.00 | 0.22 | 0.00 | 71 | 1015.8 |
| 20260504040931 | 73 | 86 | 2.0 | 3.0 | 0.00 | 0.22 | 0.00 | 72 | 1015.8 |
| 20260504040459 | 73 | 53 | 2.0 | 4.0 | 0.00 | 0.22 | 0.00 | 72 | 1015.8 |
| 20260504035942 | 73 | 37 | 2.0 | 6.0 | 0.00 | 0.22 | 0.22 | 72 | 1015.9 |
| 20260504035437 | 73 | 51 | 2.0 | 5.0 | 0.00 | 0.22 | 0.22 | 73 | 1015.9 |
| 20260504034945 | 73 | 16 | 2.0 | 5.0 | 0.00 | 0.22 | 0.22 | 73 | 1015.9 |
| 20260504034438 | 73 | 87 | 2.0 | 5.0 | 0.00 | 0.22 | 0.22 | 72 | 1016.2 |
| 20260504033935 | 73 | 49 | 2.0 | 3.0 | 0.00 | 0.22 | 0.22 | 72 | 1016.2 |
| 20260504033432 | 73 | 39 | 2.0 | 6.0 | 0.00 | 0.22 | 0.22 | 72 | 1016.2 |
| 20260504032947 | 73 | 115 | 3.0 | 6.0 | 0.00 | 0.22 | 0.22 | 73 | 1016.1 |
| 20260504032442 | 73 | 55 | 1.0 | 6.0 | 0.00 | 0.22 | 0.22 | 73 | 1016.1 |
| 20260504031936 | 73 | 63 | 1.0 | 6.0 | 0.00 | 0.22 | 0.22 | 72 | 1016.1 |
| 20260504031444 | 73 | 52 | 2.0 | 5.0 | 0.00 | 0.22 | 0.22 | 72 | 1016.1 |
| 20260504030939 | 73 | 30 | 2.0 | 5.0 | 0.00 | 0.22 | 0.22 | 73 | 1016.1 |
| 20260504030437 | 73 | 37 | 1.0 | 12.0 | 0.00 | 0.22 | 0.22 | 74 | 1016.1 |
| 20260504025943 | 73 | 37 | 4.0 | 12.0 | 0.00 | 0.22 | 0.22 | 74 | 1015.9 |
| 20260504025440 | 73 | 71 | 1.0 | 5.0 | 0.00 | 0.22 | 0.22 | 74 | 1015.9 |
| 20260504024936 | 73 | 72 | 2.0 | 3.0 | 0.00 | 0.22 | 0.22 | 72 | 1015.9 |
| 20260504024431 | 73 | 70 | 1.0 | 6.0 | 0.00 | 0.22 | 0.22 | 71 | 1016.1 |
| 20260504024003 | 73 | 60 | 3.0 | 6.0 | 0.00 | 0.22 | 0.22 | 71 | 1016.1 |
| 20260504023457 | 73 | 63 | 2.0 | 5.0 | 0.00 | 0.22 | 0.22 | 71 | 1016.1 |
| 20260504022933 | 73 | 53 | 2.0 | 5.0 | 0.00 | 0.22 | 0.22 | 72 | 1015.9 |
| 20260504022440 | 73 | 35 | 1.0 | 5.0 | 0.00 | 0.22 | 0.22 | 72 | 1015.9 |
| 20260504021937 | 73 | 53 | 1.0 | 3.0 | 0.00 | 0.22 | 0.22 | 71 | 1015.9 |
| 20260504021434 | 73 | 82 | 1.0 | 3.0 | 0.00 | 0.22 | 0.22 | 72 | 1015.8 |
| 20260504020941 | 73 | 108 | 1.0 | 5.0 | 0.00 | 0.22 | 0.22 | 72 | 1015.8 |
| 20260504020438 | 73 | 86 | 1.0 | 5.0 | 0.00 | 0.22 | 0.22 | 73 | 1015.8 |
| 20260504015931 | 72 | 42 | 1.0 | 4.0 | 0.00 | 0.22 | 0.22 | 72 | 1015.7 |
| 20260504015506 | 72 | 60 | 1.0 | 4.0 | 0.00 | 0.22 | 0.22 | 73 | 1015.7 |
| 20260504014940 | 72 | 58 | 2.0 | 5.0 | 0.00 | 0.22 | 0.22 | 74 | 1015.7 |
| 20260504014457 | 72 | 80 | 1.0 | 5.0 | 0.00 | 0.22 | 0.22 | 75 | 1015.6 |
| 20260504013945 | 72 | 90 | 0.0 | 5.0 | 0.00 | 0.22 | 0.22 | 74 | 1015.6 |
| 20260504013441 | 72 | 159 | 1.0 | 4.0 | 0.00 | 0.22 | 0.22 | 74 | 1015.6 |
| 20260504012938 | 72 | 66 | 1.0 | 7.0 | 0.00 | 0.22 | 0.22 | 75 | 1015.6 |
| 20260504012444 | 72 | 13 | 1.0 | 7.0 | 0.00 | 0.22 | 0.22 | 74 | 1015.6 |
| 20260504011939 | 72 | 78 | 1.0 | 7.0 | 0.00 | 0.22 | 0.22 | 74 | 1015.6 |
| 20260504011436 | 73 | 75 | 2.0 | 4.0 | 0.00 | 0.22 | 0.22 | 75 | 1015.4 |
| 20260504010936 | 73 | 151 | 0.0 | 4.0 | 0.00 | 0.22 | 0.22 | 74 | 1015.4 |
| 20260504010442 | 73 | 69 | 0.0 | 7.0 | 0.00 | 0.22 | 0.22 | 73 | 1015.4 |
| 20260504005955 | 73 | 62 | 0.0 | 7.0 | 0.00 | 0.22 | 0.22 | 72 | 1015.4 |
| 20260504005431 | 73 | 41 | 1.0 | 5.0 | 0.00 | 0.22 | 0.22 | 72 | 1015.4 |
| 20260504004945 | 73 | 78 | 1.0 | 5.0 | 0.00 | 0.22 | 0.22 | 72 | 1015.4 |
| 20260504004443 | 73 | 99 | 1.0 | 4.0 | 0.00 | 0.22 | 0.22 | 73 | 1015.4 |
| 20260504003937 | 73 | 158 | 1.0 | 4.0 | 0.00 | 0.22 | 0.22 | 72 | 1015.4 |
| 20260504003433 | 73 | 52 | 1.0 | 6.0 | 0.00 | 0.22 | 0.22 | 72 | 1015.4 |
| 20260504002950 | 73 | 52 | 1.0 | 6.0 | 0.00 | 0.22 | 0.22 | 71 | 1015.2 |
| 20260504002439 | 73 | 44 | 2.0 | 5.0 | 0.00 | 0.22 | 0.22 | 71 | 1015.2 |
| 20260504001932 | 73 | 27 | 2.0 | 5.0 | 0.00 | 0.22 | 0.22 | 71 | 1015.2 |
| 20260504001441 | 73 | 68 | 1.0 | 4.0 | 0.00 | 0.22 | 0.22 | 72 | 1015.2 |
| 20260504000936 | 73 | 73 | 1.0 | 4.0 | 0.00 | 0.22 | 0.22 | 71 | 1015.2 |
| 20260504000433 | 73 | 65 | 1.0 | 7.0 | 0.00 | 0.22 | 0.22 | 70 | 1015.2 |
| 20260504000000 | 73 | 79 | 2.0 | 7.0 | 0.00 | 0.22 | 0.22 | 70 | 1015.0 |
| 20260503235436 | 73 | 32 | 2.0 | 4.0 | 0.00 | 0.22 | 0.22 | 69 | 1015.0 |
| 20260503234944 | 73 | 32 | 1.0 | 4.0 | 0.00 | 0.22 | 0.22 | 69 | 1015.0 |
| 20260503234441 | 73 | 72 | 2.0 | 4.0 | 0.00 | 0.22 | 0.22 | 69 | 1015.0 |
| 20260503233957 | 73 | 54 | 1.0 | 4.0 | 0.00 | 0.22 | 0.22 | 70 | 1015.0 |
| 20260503233444 | 73 | 55 | 1.0 | 5.0 | 0.00 | 0.22 | 0.22 | 70 | 1015.0 |
| 20260503232938 | 73 | 52 | 1.0 | 5.0 | 0.00 | 0.22 | 0.22 | 70 | 1014.8 |
| 20260503232503 | 73 | 60 | 1.0 | 5.0 | 0.00 | 0.22 | 0.22 | 70 | 1014.8 |
| 20260503231957 | 73 | 49 | 1.0 | 5.0 | 0.00 | 0.22 | 0.22 | 70 | 1014.8 |
| 20260503231459 | 73 | 35 | 3.0 | 5.0 | 0.00 | 0.22 | 0.22 | 70 | 1014.8 |
| 20260503230934 | 73 | 34 | 1.0 | 5.0 | 0.00 | 0.22 | 0.22 | 70 | 1014.8 |
| 20260503230447 | 73 | 38 | 1.0 | 5.0 | 0.00 | 0.22 | 0.22 | 70 | 1014.8 |
| 20260503225941 | 73 | 54 | 2.0 | 5.0 | 0.00 | 0.22 | 0.22 | 70 | 1014.8 |
| 20260503225438 | 73 | 69 | 3.0 | 5.0 | 0.00 | 0.22 | 0.22 | 70 | 1014.8 |
| 20260503224934 | 73 | 27 | 2.0 | 7.0 | 0.00 | 0.22 | 0.22 | 70 | 1014.8 |
| 20260503224458 | 73 | 48 | 2.0 | 9.0 | 0.00 | 0.22 | 0.22 | 70 | 1014.8 |
| 20260503223945 | 73 | 38 | 2.0 | 9.0 | 0.00 | 0.22 | 0.22 | 71 | 1014.8 |
| 20260503223442 | 73 | 32 | 1.0 | 3.0 | 0.00 | 0.22 | 0.22 | 69 | 1014.8 |
| 20260503222937 | 73 | 40 | 1.0 | 4.0 | 0.00 | 0.22 | 0.22 | 68 | 1014.9 |
| 20260503222434 | 73 | 49 | 2.0 | 5.0 | 0.00 | 0.22 | 0.22 | 69 | 1014.9 |
| 20260503221942 | 73 | 136 | 1.0 | 5.0 | 0.00 | 0.22 | 0.22 | 68 | 1014.9 |
| 20260503221438 | 73 | 58 | 1.0 | 5.0 | 0.00 | 0.22 | 0.22 | 69 | 1015.0 |
| 20260503220956 | 73 | 36 | 1.0 | 5.0 | 0.00 | 0.22 | 0.22 | 68 | 1015.0 |
| 20260503220447 | 73 | 34 | 1.0 | 4.0 | 0.00 | 0.22 | 0.22 | 67 | 1015.0 |
| 20260503215940 | 74 | 34 | 1.0 | 4.0 | 0.00 | 0.22 | 0.22 | 68 | 1014.9 |
| 20260503215435 | 74 | 25 | 2.0 | 5.0 | 0.00 | 0.22 | 0.22 | 68 | 1014.9 |
| 20260503214931 | 74 | 70 | 2.0 | 5.0 | 0.00 | 0.22 | 0.22 | 69 | 1014.9 |
| 20260503214441 | 74 | 37 | 2.0 | 5.0 | 0.00 | 0.22 | 0.22 | 69 | 1014.8 |
| 20260503213938 | 73 | 75 | 1.0 | 5.0 | 0.00 | 0.22 | 0.22 | 69 | 1014.8 |
| 20260503213434 | 73 | 59 | 1.0 | 2.0 | 0.00 | 0.22 | 0.22 | 70 | 1014.8 |
| 20260503212941 | 73 | 97 | 0.0 | 4.0 | 0.00 | 0.22 | 0.22 | 70 | 1014.9 |
| 20260503212436 | 73 | 31 | 2.0 | 5.0 | 0.00 | 0.22 | 0.22 | 69 | 1014.9 |
| 20260503211930 | 73 | 28 | 2.0 | 5.0 | 0.00 | 0.22 | 0.22 | 69 | 1014.9 |
| 20260503211444 | 73 | 9 | 1.0 | 3.0 | 0.00 | 0.22 | 0.22 | 69 | 1015.0 |
| 20260503210937 | 73 | 61 | 1.0 | 4.0 | 0.00 | 0.22 | 0.22 | 68 | 1015.0 |
| 20260503210440 | 73 | 36 | 1.0 | 4.0 | 0.00 | 0.22 | 0.22 | 68 | 1015.0 |
| 20260503205936 | 73 | 30 | 2.0 | 4.0 | 0.00 | 0.22 | 0.22 | 68 | 1015.3 |
| 20260503205438 | 73 | 73 | 1.0 | 4.0 | 0.00 | 0.22 | 0.22 | 68 | 1015.3 |
| 20260503205007 | 73 | 47 | 2.0 | 4.0 | 0.00 | 0.22 | 0.22 | 68 | 1015.3 |
| 20260503204439 | 73 | 39 | 1.0 | 4.0 | 0.00 | 0.22 | 0.22 | 69 | 1015.4 |
| 20260503203935 | 73 | 70 | 2.0 | 4.0 | 0.00 | 0.22 | 0.22 | 68 | 1015.4 |
| 20260503203444 | 73 | 51 | 2.0 | 4.0 | 0.00 | 0.22 | 0.22 | 69 | 1015.4 |
| 20260503202940 | 73 | 36 | 2.0 | 4.0 | 0.00 | 0.22 | 0.22 | 67 | 1015.4 |
| 20260503202456 | 73 | 97 | 2.0 | 4.0 | 0.00 | 0.22 | 0.22 | 69 | 1015.4 |
| 20260503201945 | 73 | 63 | 2.0 | 4.0 | 0.00 | 0.22 | 0.22 | 68 | 1015.4 |
| 20260503201441 | 73 | 70 | 2.0 | 4.0 | 0.00 | 0.22 | 0.22 | 69 | 1015.4 |
| 20260503200956 | 73 | 49 | 2.0 | 5.0 | 0.00 | 0.22 | 0.22 | 67 | 1015.4 |
| 20260503200449 | 74 | 43 | 2.0 | 5.0 | 0.00 | 0.22 | 0.22 | 68 | 1015.4 |
| 20260503195942 | 74 | 41 | 3.0 | 5.0 | 0.00 | 0.22 | 0.22 | 69 | 1015.4 |
| 20260503195438 | 74 | 34 | 2.0 | 4.0 | 0.00 | 0.22 | 0.22 | 69 | 1015.4 |
| 20260503194935 | 74 | 56 | 2.0 | 4.0 | 0.00 | 0.22 | 0.22 | 69 | 1015.4 |
| 20260503194432 | 74 | 41 | 2.0 | 4.0 | 0.00 | 0.22 | 0.22 | 68 | 1015.3 |
| 20260503193957 | 74 | 49 | 1.0 | 5.0 | 0.00 | 0.22 | 0.22 | 70 | 1015.3 |
| 20260503193439 | 74 | 33 | 2.0 | 5.0 | 0.00 | 0.22 | 0.22 | 69 | 1015.3 |
| 20260503192935 | 74 | 40 | 2.0 | 5.0 | 0.00 | 0.22 | 0.22 | 69 | 1015.8 |
| 20260503192433 | 74 | 360 | 2.0 | 6.0 | 0.00 | 0.22 | 0.22 | 70 | 1015.8 |
| 20260503191948 | 74 | 53 | 3.0 | 6.0 | 0.00 | 0.22 | 0.22 | 69 | 1015.8 |
| 20260503191501 | 74 | 73 | 1.0 | 7.0 | 0.00 | 0.22 | 0.22 | 71 | 1015.9 |
| 20260503190953 | 73 | 37 | 2.0 | 9.0 | 0.00 | 0.22 | 0.22 | 71 | 1015.9 |
| 20260503190429 | 73 | 13 | 1.0 | 5.0 | 0.00 | 0.22 | 0.22 | 72 | 1015.9 |
| 20260503185946 | 73 | 26 | 1.0 | 6.0 | 0.00 | 0.22 | 0.22 | 73 | 1016.3 |
| 20260503185442 | 72 | 66 | 2.0 | 6.0 | 0.00 | 0.22 | 0.22 | 75 | 1016.3 |
| 20260503184937 | 72 | 40 | 2.0 | 7.0 | 0.00 | 0.22 | 0.22 | 76 | 1016.3 |
| 20260503184505 | 72 | 21 | 3.0 | 7.0 | 0.00 | 0.22 | 0.22 | 75 | 1016.5 |
| 20260503183940 | 72 | 31 | 2.0 | 4.0 | 0.00 | 0.22 | 0.22 | 75 | 1016.5 |
| 20260503183437 | 72 | 46 | 2.0 | 4.0 | 0.00 | 0.22 | 0.22 | 76 | 1016.5 |
| 20260503182944 | 72 | 9 | 1.0 | 5.0 | 0.00 | 0.22 | 0.22 | 77 | 1016.8 |
| 20260503182437 | 72 | 44 | 2.0 | 10.0 | 0.00 | 0.22 | 0.22 | 76 | 1016.8 |
| 20260503181939 | 72 | 34 | 2.0 | 10.0 | 0.00 | 0.22 | 0.22 | 75 | 1016.8 |
| 20260503181452 | 72 | 39 | 1.0 | 4.0 | 0.00 | 0.22 | 0.22 | 76 | 1016.9 |
| 20260503181001 | 72 | 70 | 1.0 | 6.0 | 0.00 | 0.22 | 0.22 | 76 | 1016.9 |
| 20260503180435 | 72 | 49 | 2.0 | 9.0 | 0.00 | 0.22 | 0.22 | 76 | 1016.9 |
| 20260503175934 | 71 | 40 | 3.0 | 9.0 | 0.00 | 0.22 | 0.22 | 78 | 1016.9 |
| 20260503175440 | 71 | 39 | 1.0 | 4.0 | 0.00 | 0.22 | 0.22 | 79 | 1016.9 |
| 20260503174938 | 71 | 38 | 2.0 | 6.0 | 0.00 | 0.22 | 0.22 | 79 | 1016.9 |
| 20260503174432 | 71 | 45 | 2.0 | 6.0 | 0.00 | 0.22 | 0.22 | 79 | 1016.8 |
| 20260503173940 | 71 | 23 | 1.0 | 5.0 | 0.00 | 0.22 | 0.22 | 79 | 1016.8 |
| 20260503173436 | 71 | 24 | 2.0 | 5.0 | 0.00 | 0.22 | 0.22 | 79 | 1016.8 |
| 20260503173002 | 71 | 360 | 2.0 | 5.0 | 0.00 | 0.22 | 0.22 | 79 | 1016.7 |
| 20260503172438 | 72 | 41 | 2.0 | 5.0 | 0.00 | 0.22 | 0.22 | 79 | 1016.7 |
| 20260503171934 | 72 | 12 | 2.0 | 5.0 | 0.00 | 0.22 | 0.22 | 79 | 1016.7 |
| 20260503171431 | 72 | 46 | 1.0 | 5.0 | 0.00 | 0.22 | 0.22 | 76 | 1016.8 |
| 20260503170944 | 72 | 46 | 2.0 | 7.0 | 0.00 | 0.22 | 0.22 | 76 | 1016.8 |
| 20260503170439 | 72 | 57 | 2.0 | 10.0 | 0.00 | 0.22 | 0.22 | 74 | 1016.8 |
| 20260503150944 | 71 | 53 | 2.0 | 7.0 | 0.00 | 0.21 | 0.21 | 85 | 1016.9 |
| 20260503150438 | 71 | 34 | 1.0 | 3.0 | 0.00 | 0.21 | 0.21 | 84 | 1016.9 |
| 20260503130942 | 70 | 37 | 2.0 | 10.0 | 0.00 | 0.21 | 0.21 | 87 | 1015.6 |
| 20260503130434 | 70 | 3 | 3.0 | 9.0 | 0.00 | 0.21 | 0.21 | 88 | 1015.6 |
| 20260503110438 | 69 | 46 | 3.0 | 10.0 | 0.00 | 0.21 | 0.21 | 100 | 1014.4 |
| 20260503090439 | 70 | 316 | 3.0 | 5.0 | 0.07 | 0.07 | 0.07 | 93 | 1013.7 |
| 20260503081440 | 71 | 8 | 1.0 | 6.0 | 0.00 | 0.00 | 0.00 | 89 | 1013.5 |
| 20260503080935 | 71 | 345 | 2.0 | 6.0 | 0.00 | 0.00 | 0.00 | 89 | 1013.5 |
| 20260503080439 | 71 | 11 | 2.0 | 9.0 | 0.00 | 0.00 | 0.00 | 88 | 1013.5 |
| 20260503072438 | 71 | 323 | 1.0 | 4.0 | 0.00 | 0.00 | 0.00 | 88 | 1012.9 |